Погода в Пазяле

Россия / Удмуртская Республика     56°37′32″N   52°10′41″E
темп.,
°C
ветер,
м/с
пор.,
м/с
влажн.,
%
обл.,
%
осадки,
мм/ч
давл.,
гПа
погр.,
м
19 мая, ср
ср1901:00+14в49775 0.0 1020166
04:00+12в39835 0.0 1020149
07:00+15в59776 0.0 1021385
10:00+19вюв68565 0.0 1021824
13:00+22вюв57435 0.0 10211242
16:00+23юв56415 0.0 10201357
19:00+20юв365920 0.0 1020138
22:00+15вюв37657 0.0 102095
20 мая, чт
чт2001:00+13вюв37680 0.0 1021109
04:00+12вюв367031 0.0 102086
07:00+16вюв46652 0.0 1020183
10:00+22юв45500 0.0 1020722
13:00+24юв57420 0.0 10191890
16:00+24юв67430 0.0 10171974
19:00+20юв49570 0.0 1016240
22:00+16вюв410645 0.0 1016163
21 мая, пт
пт2101:00+15вюв5136417 0.0 1014263
04:00+14юв4106949 0.0 1014229
07:00+16ю487779 0.0 1014519
10:00+20ю576329 0.1 10141356
13:00+21ююз895573 0.3 10141863
16:00+20ю595999 0.3 1014700
19:00+18ююз48715 0.3 1014509
22:00+14ю38875 0.3 1015147
22 мая, сб
сб2201:00+13юз4108812 0.0 1015242
04:00+11юз4996100 0.0 1016245
07:00+14зюз578439 0.0 1018538
10:00+17з5667100 0.0 10181206
13:00+18з5763100 0.1 10191397
16:00+20з5550100 0.1 10191672
19:00+16з3464100 0.0 102077
22:00+13з0068100 0.0 102010
23 мая, вс
вс2301:00+13юз2367100 0.0 102145
04:00+12ююз2489100 0.2 1022102
07:00+14вюв1182100 0.0 1022185
10:00+17вюв3469100 0.0 1021745
13:00+18ююв4464100 0.0 1022982
16:00+19ююв4467100 0.0 1020710
19:00+17юв3782100 0.0 1019318
22:00+16вюв4994100 0.0 1018210